Flag for Germany Weather past 2 weeks in Geldern, North Rhine-Westphalia, Germany

Now
59 °F

Scattered clouds.


Feels Like: 57 °F
Forecast: 44 / 65 °F
Wind: 10 mph from North

Location: Niederrhein

Current Time: May 30, 2015 at 5:22:45 PM

Latest Report: May 30, 2015 at 4:50 PM


Visibility: N/A

Pressure: 29.98 "Hg

Humidity: 48%

Dew point: 39 °F

Location of GeldernLocation

Historic Weather in Geldern — Graph

°F

Geldern temperature yesterday

Maximum temperature yesterday: 63 °F (at 2:20 PM)
Minimum temperature yesterday: 46 °F (at 4:50 AM)
Average temperature yesterday: 55 °F

Past Weeks' High & Low Weather Summary

 TemperatureHumidityPressure
High70 °F (May 22, 3:50 PM)100% (May 21, 4:50 AM)30.33 "Hg (May 21, 4:50 AM)
Low39 °F (May 21, 4:50 AM)35% (May 22, 3:50 PM)29.65 "Hg (May 18, 5:50 PM)
Average56 °F65%30.05 "Hg
* Reported May 15 3:20 PM — May 30 3:50 PM, Geldern, Weather by CustomWeather, © 2015

Note: Actual official high and low records may vary slightly from our data, if they occured in-between our weather recording intervals... More about our weather records

Advertising

Geldern weather history for previous 24 hours

 ConditionsComfort  
Time TempWeatherWind HumidityBarometerVisibility
3:50 PM
Sat, May 30
59 °FScattered clouds.13 mph59%29.98 "HgN/A
3:20 PM57 °FScattered clouds.13 mph63%29.98 "HgN/A
2:50 PM55 °FScattered clouds.15 mph67%29.95 "HgN/A
2:20 PM57 °FPassing clouds.15 mph59%29.95 "HgN/A
1:50 PM54 °FSunny.15 mph67%29.95 "Hg10 mi
1:20 PM52 °FSunny.17 mph72%29.95 "Hg10 mi
12:50 PM52 °FPassing clouds.15 mph72%29.95 "HgN/A
12:20 PM46 °FRain showers. Partly sunny.17 mph87%29.95 "Hg4 mi
11:50 AM48 °FSprinkles. Partly sunny.7 mph87%29.95 "HgN/A
11:20 AM48 °FSprinkles. Partly sunny.6 mph82%29.92 "HgN/A
10:50 AM48 °FThundershowers. Partly sunny.9 mph82%29.92 "HgN/A
10:20 AM46 °FThundershowers. Partly sunny.13 mph87%29.92 "Hg6 mi
9:50 AM54 °FPartly sunny.15 mph67%29.89 "HgN/A
9:20 AM54 °FPassing clouds.15 mph67%29.89 "HgN/A
8:50 AM54 °FSunny.14 mph72%29.89 "Hg10 mi
8:20 AM52 °FSunny.14 mph82%29.86 "Hg10 mi
7:50 AM50 °FSunny.10 mph88%29.86 "Hg10 mi
7:20 AM48 °FClear.9 mph94%29.86 "Hg10 mi
6:50 AM48 °FClear.8 mph87%29.86 "Hg10 mi
6:20 AM46 °FClear.7 mph93%29.83 "Hg10 mi
5:50 AM46 °FClear.6 mph93%29.83 "Hg10 mi
5:20 AM46 °FClear.7 mph93%29.83 "Hg10 mi
4:50 AM48 °FClear.7 mph87%29.83 "Hg10 mi
11:50 PM
Fri, May 29
48 °FClear.10 mph94%29.77 "Hg10 mi
11:20 PM48 °FSunny.12 mph94%29.77 "Hg10 mi
10:50 PM48 °FSunny.9 mph87%29.77 "Hg10 mi
10:20 PM48 °FPartly sunny.9 mph87%29.77 "HgN/A
9:50 PM50 °FSprinkles. Partly sunny.12 mph82%29.77 "HgN/A
9:20 PM50 °FPartly sunny.13 mph82%29.77 "HgN/A
8:50 PM50 °FSprinkles. Partly sunny.13 mph82%29.77 "HgN/A
8:20 PM54 °FSprinkles. Partly sunny.23 mph72%29.74 "HgN/A
7:50 PM57 °FSprinkles. Scattered clouds.16 mph63%29.74 "HgN/A
7:20 PM59 °FSprinkles. Broken clouds.16 mph55%29.74 "HgN/A
6:50 PM59 °FPartly sunny.15 mph55%29.74 "HgN/A
6:20 PM59 °FSunny.16 mph55%29.74 "Hg10 mi
5:50 PM61 °FPassing clouds.17 mph48%29.74 "HgN/A
5:20 PM61 °FSunny.17 mph48%29.74 "Hg10 mi
Weather by CustomWeather, © 2015

See weather overviewHow to use our weather pages